Caldwell, NJ

5:37 PM EST on November 13, 2019 (GMT -0500)
Essex County

Weather History for KCDW - September, 2019

Change the Weather History Date:

Tuesday, September 10, 2019

  Actual Average Record
Temperature  
Mean Temperature 72 °F -  
Max Temperature 81 °F 77 °F 96 °F (1964)
Min Temperature 64 °F 52 °F 39 °F (1956)
Cooling Degree Days 6    
Growing Degree Days 22 (Base 50)    
Moisture  
Dew Point 65 °F    
Average Humidity 84    
Maximum Humidity 97    
Minimum Humidity 58    
Precipitation  
Precipitation 0.05 in - - ()
Sea Level Pressure  
Sea Level Pressure 30.33 in    
Wind  
Wind Speed 1 mph ()    
Max Wind Speed 8 mph    
Max Gust Speed -    
Visibility 8.4 miles    
Events Rain    
Averages and records for this station are not official NWS values.
T = Trace of Precipitation, MM = Missing Value Source: Averaged Metar Reports

Daily Weather History Graph

Daily Weather History Graph

Search for Another Location

Airport or City:

Astronomy

Sep. 10, 2019 Rise Set
Actual Time 6:32 AM EDT 7:15 PM EDT
Civil Twilight 6:04 AM EDT 7:42 PM EDT
Nautical Twilight 5:31 AM EDT 8:15 PM EDT
Astronomical Twilight 4:58 AM EDT 8:49 PM EDT
Moon 5:51 PM EDT (9/10) 2:54 AM EDT (9/10)
Length of Visible Light 13h 37m
Length of Day
12h 42m
Waxing Gibbous, 89% of the Moon is Illuminated
Sep 10
Waxing Gibbous
Sep 14
Full
Sep 21
Last Quarter
Sep 28
New
Oct 5
First Quarter

Hourly Weather History & Observations

Time (EDT) Temp. Dew Point Humidity Pressure Visibility Wind Dir Wind Speed Gust Speed Precip Events Conditions
12:37 AM 64.9 °F 62.1 °F 90% 30.30 in 10.0 mi Calm Calm - N/A   Mostly Cloudy
12:45 AM 64.9 °F 63.0 °F 93% 30.30 in 10.0 mi Calm Calm - N/A   Scattered Clouds
12:53 AM 64.9 °F 63.0 °F 93% 30.31 in 10.0 mi Calm Calm - N/A   Partly Cloudy
1:53 AM 64.9 °F 62.1 °F 90% 30.31 in 10.0 mi Calm Calm - N/A   Partly Cloudy
2:53 AM 64.9 °F 63.0 °F 93% 30.32 in 10.0 mi Calm Calm - N/A   Overcast
3:53 AM 64.0 °F 63.0 °F 96% 30.32 in 10.0 mi Calm Calm - N/A   Partly Cloudy
4:13 AM 64.9 °F 62.1 °F 90% 30.30 in 10.0 mi Calm Calm - N/A   Mostly Cloudy
4:38 AM 64.9 °F 64.0 °F 97% 30.31 in 10.0 mi Calm Calm - N/A   Overcast
4:53 AM 66.0 °F 63.0 °F 90% 30.33 in 10.0 mi Calm Calm - N/A   Overcast
5:13 AM 66.0 °F 64.0 °F 93% 30.32 in 10.0 mi Calm Calm - N/A   Overcast
5:53 AM 66.9 °F 64.9 °F 93% 30.35 in 4.0 mi Calm Calm - 0.00 in Rain Light Rain
6:04 AM 66.9 °F 64.9 °F 93% 30.34 in 2.0 mi Calm Calm - 0.05 in Rain Heavy Rain
6:14 AM 66.9 °F 64.9 °F 93% 30.34 in 5.0 mi Calm Calm - 0.05 in Rain Light Rain
6:23 AM 66.9 °F 64.9 °F 93% 30.34 in 7.0 mi Calm Calm - 0.05 in   Overcast
6:37 AM 66.9 °F 64.9 °F 93% 30.34 in 7.0 mi Calm Calm - 0.05 in   Overcast
6:50 AM 66.2 °F 64.4 °F 94% 30.35 in 7.0 mi Calm Calm - 0.05 in   Overcast
6:53 AM 66.9 °F 64.9 °F 93% 30.36 in 7.0 mi Calm Calm - 0.05 in   Overcast
7:53 AM 68.0 °F 66.0 °F 93% 30.37 in 6.0 mi ENE 4.6 mph - N/A   Overcast
8:53 AM 69.1 °F 66.9 °F 93% 30.38 in 5.0 mi Calm Calm - N/A   Overcast
9:07 AM 69.1 °F 66.9 °F 93% 30.37 in 6.0 mi Calm Calm - N/A   Overcast
9:53 AM 71.1 °F 68.0 °F 90% 30.39 in 6.0 mi Calm Calm - N/A   Overcast
10:00 AM 71.1 °F 68.0 °F 90% 30.37 in 6.0 mi Calm Calm - N/A   Overcast
10:40 AM 73.0 °F 69.1 °F 87% 30.36 in 7.0 mi SE 4.6 mph - N/A   Overcast
10:48 AM 73.4 °F 68.0 °F 83% 30.36 in 7.0 mi SE 4.6 mph - N/A   Overcast
10:53 AM 73.0 °F 68.0 °F 84% 30.38 in 7.0 mi SE 4.6 mph - N/A   Mostly Cloudy
11:53 AM 75.0 °F 68.0 °F 79% 30.37 in 10.0 mi Calm Calm - N/A   Overcast
12:03 PM 75.0 °F 66.0 °F 73% 30.35 in 10.0 mi South 4.6 mph - N/A   Overcast
12:53 PM 77.0 °F 63.0 °F 62% 30.36 in 10.0 mi South 6.9 mph - N/A   Overcast
1:53 PM 78.1 °F 63.0 °F 60% 30.34 in 10.0 mi South 6.9 mph - N/A   Overcast
2:53 PM 79.0 °F 63.0 °F 58% 30.32 in 10.0 mi South 8.1 mph - N/A   Overcast
3:53 PM 79.0 °F 63.0 °F 58% 30.31 in 10.0 mi Variable 5.8 mph - N/A   Mostly Cloudy
4:53 PM 79.0 °F 63.0 °F 58% 30.30 in 10.0 mi Variable 4.6 mph - N/A   Partly Cloudy
5:53 PM 79.0 °F 66.0 °F 64% 30.29 in 10.0 mi SSE 8.1 mph - N/A   Partly Cloudy
6:53 PM 75.9 °F 66.0 °F 71% 30.29 in 10.0 mi SE 5.8 mph - N/A   Partly Cloudy
8:53 PM 73.9 °F 66.9 °F 79% 30.28 in 10.0 mi South 4.6 mph - N/A   Clear
9:53 PM 73.0 °F 66.9 °F 81% 30.29 in 10.0 mi Variable 3.5 mph - N/A   Clear
10:53 PM 72.0 °F 66.0 °F 81% 30.28 in 10.0 mi Variable 4.6 mph - N/A   Clear